Change the Weather History Date:

Monday, November 5, 2012

  Actual Average Record
Temperature  
Mean Temperature 30 °F -  
Max Temperature 35 °F 47 °F 69 °F (2005)
Min Temperature 24 °F 32 °F 24 °F (2006)
Degree Days  
Heating Degree Days 36    
Moisture  
Dew Point 18 °F    
Average Humidity 61    
Maximum Humidity 69    
Minimum Humidity 51    
Precipitation  
Precipitation 0.00 in - - ()
Sea Level Pressure  
Sea Level Pressure 30.05 in    
Wind  
Wind Speed 11 mph (NNW)    
Max Wind Speed 17 mph    
Max Gust Speed 25 mph    
Visibility 10 miles    
Events      
Averages and records for this station are not official NWS values.
T = Trace of Precipitation, MM = Missing Value Source: NWS Daily Summary

Daily Weather History Graph

Daily Weather History Graph

Search for Another Location

Airport or City:

Trip Planner

Search our weather history database for the weather conditions in past years. The results will help you decide how hot, cold, wet, or windy it might be!

Date:

Astronomy

Nov. 05, 2012 Rise Set
Actual Time 6:36 AM EST 4:48 PM EST
Civil Twilight 6:07 AM EST 5:17 PM EST
Nautical Twilight 5:34 AM EST 5:50 PM EST
Astronomical Twilight 5:01 AM EST 6:23 PM EST
Moon 10:23 PM EST (11/5) 11:54 AM EST (11/5)
Length of Visible Light 11h 09m
Length of Day
10h 11m
Waning Gibbous, 63% of the Moon is Illuminated
Nov 5
Waning Gibbous
Nov 6
Last Quarter
Nov 13
New
Nov 20
First Quarter
Nov 28
Full

Hourly Weather History & Observations

Time (EST) Temp. Windchill Dew Point Humidity Pressure Visibility Wind Dir Wind Speed Gust Speed Precip Events Conditions
6:35 AM - - - N/A% 29.98 in - NNW 12.7 mph - N/A   Unknown
6:55 AM 30.2 °F 20.8 °F 21.2 °F 69% 29.99 in 10.0 mi NNW 11.5 mph 19.6 mph N/A   Overcast
7:15 AM 30.2 °F 20.2 °F 21.2 °F 69% 30.00 in 10.0 mi NNW 12.7 mph - N/A   Overcast
7:35 AM 30.2 °F 19.8 °F 21.2 °F 69% 30.01 in 10.0 mi North 13.8 mph 17.3 mph N/A   Overcast
7:55 AM 30.2 °F 21.9 °F 21.2 °F 69% 30.02 in 10.0 mi North 9.2 mph - N/A   Overcast
8:15 AM 30.2 °F 21.9 °F 21.2 °F 69% 30.02 in 10.0 mi NW 9.2 mph 16.1 mph N/A   Overcast
8:35 AM 30.2 °F 19.8 °F 21.2 °F 69% 30.02 in 10.0 mi NNW 13.8 mph 23.0 mph N/A   Overcast
8:55 AM 32.0 °F 22.5 °F 21.2 °F 64% 30.02 in 10.0 mi NNW 12.7 mph - N/A   Overcast
9:15 AM 33.8 °F 25.3 °F 21.2 °F 60% 30.02 in 10.0 mi NNW 11.5 mph 20.7 mph N/A   Overcast
9:35 AM 33.8 °F 24.3 °F 19.4 °F 56% 30.02 in 10.0 mi North 13.8 mph 19.6 mph N/A   Overcast
9:55 AM 33.8 °F 25.8 °F 21.2 °F 60% 30.02 in 10.0 mi NW 10.4 mph - N/A   Overcast
10:15 AM 33.8 °F 24.8 °F 21.2 °F 60% 30.03 in 10.0 mi NNW 12.7 mph 18.4 mph N/A   Overcast
10:35 AM 33.8 °F 24.8 °F 21.2 °F 60% 30.03 in 10.0 mi NNW 12.7 mph 18.4 mph N/A   Overcast
10:55 AM 33.8 °F 23.5 °F 21.2 °F 60% 30.03 in 10.0 mi NNW 16.1 mph 20.7 mph N/A   Overcast
11:15 AM 33.8 °F 23.5 °F 21.2 °F 60% 30.03 in 10.0 mi NNW 16.1 mph 20.7 mph N/A   Overcast
11:35 AM 35.6 °F 26.6 °F 21.2 °F 56% 30.02 in 10.0 mi NW 13.8 mph - N/A   Overcast
11:55 AM 35.6 °F 25.5 °F 21.2 °F 56% 30.02 in 10.0 mi NNW 17.3 mph - N/A   Overcast
12:15 PM 33.8 °F 24.8 °F 19.4 °F 56% 30.02 in 10.0 mi NNW 12.7 mph 21.9 mph N/A   Overcast
12:35 PM 33.8 °F 24.8 °F 21.2 °F 60% 30.02 in 10.0 mi NNW 12.7 mph 21.9 mph N/A   Overcast
12:55 PM 33.8 °F 24.8 °F 21.2 °F 60% 30.02 in 10.0 mi NW 12.7 mph 19.6 mph N/A   Overcast
1:15 PM 33.8 °F 24.3 °F 21.2 °F 60% 30.01 in 10.0 mi NNW 13.8 mph - N/A   Overcast
1:35 PM 33.8 °F 27.7 °F 21.2 °F 60% 30.01 in 10.0 mi NW 6.9 mph - N/A   Overcast
1:55 PM 33.8 °F 24.3 °F 21.2 °F 60% 30.01 in 10.0 mi NNW 13.8 mph 20.7 mph N/A   Overcast
2:15 PM 33.8 °F 24.8 °F 19.4 °F 56% 30.01 in 10.0 mi NNW 12.7 mph - N/A   Overcast
2:35 PM 33.8 °F 23.5 °F 19.4 °F 56% 30.01 in 10.0 mi NW 16.1 mph 20.7 mph N/A   Overcast
2:55 PM 33.8 °F 23.5 °F 19.4 °F 56% 30.02 in 10.0 mi NNW 16.1 mph 25.3 mph N/A   Overcast
3:15 PM 33.8 °F 25.3 °F 19.4 °F 56% 30.02 in 10.0 mi NNW 11.5 mph 21.9 mph N/A   Overcast
3:35 PM 33.8 °F 24.3 °F 17.6 °F 52% 30.02 in 10.0 mi NNW 13.8 mph 20.7 mph N/A   Mostly Cloudy
3:55 PM 32.0 °F 23.6 °F 15.8 °F 51% 30.03 in 10.0 mi NNW 10.4 mph 21.9 mph N/A   Scattered Clouds
4:15 PM 32.0 °F 23.6 °F 17.6 °F 55% 30.03 in 10.0 mi NNW 10.4 mph 16.1 mph N/A   Mostly Cloudy
4:55 PM 30.2 °F 21.3 °F 15.8 °F 55% 30.04 in 10.0 mi NW 10.4 mph - N/A   Clear
5:15 PM 30.2 °F 19.8 °F 15.8 °F 55% 30.05 in 10.0 mi NNW 13.8 mph - N/A   Clear
5:35 PM 28.4 °F 21.2 °F 15.8 °F 59% 30.06 in 10.0 mi NNW 6.9 mph - N/A   Partly Cloudy
5:55 PM 28.4 °F 20.4 °F 15.8 °F 59% 30.07 in 10.0 mi NW 8.1 mph - N/A   Scattered Clouds
6:15 PM 28.4 °F 20.4 °F 15.8 °F 59% 30.08 in 10.0 mi NNW 8.1 mph - N/A   Mostly Cloudy
6:35 PM 28.4 °F 20.4 °F 15.8 °F 59% 30.08 in 10.0 mi NNW 8.1 mph - N/A   Overcast
6:55 PM 28.4 °F 20.4 °F 15.8 °F 59% 30.08 in 10.0 mi NW 8.1 mph - N/A   Scattered Clouds
7:15 PM 28.4 °F 20.4 °F 15.8 °F 59% 30.09 in 10.0 mi NNW 8.1 mph - N/A   Clear
7:35 PM 28.4 °F 18.0 °F 15.8 °F 59% 30.10 in 10.0 mi NNW 12.7 mph - N/A   Clear
7:55 PM 28.4 °F 19.7 °F 15.8 °F 59% 30.10 in 10.0 mi NNW 9.2 mph - N/A   Clear
8:15 PM 28.4 °F 19.1 °F 15.8 °F 59% 30.10 in 10.0 mi NNW 10.4 mph 17.3 mph N/A   Clear
8:35 PM 28.4 °F 19.1 °F 15.8 °F 59% 30.10 in 10.0 mi NNW 10.4 mph - N/A   Clear
8:55 PM 28.4 °F 20.4 °F 15.8 °F 59% 30.12 in 10.0 mi NW 8.1 mph - N/A   Clear
9:15 PM 26.6 °F 19.1 °F 15.8 °F 64% 30.12 in 10.0 mi NW 6.9 mph - N/A   Clear
9:35 PM 26.6 °F 18.2 °F 15.8 °F 64% 30.12 in 10.0 mi NW 8.1 mph - N/A   Clear
9:55 PM 26.6 °F 19.1 °F 15.8 °F 64% 30.13 in 10.0 mi NNW 6.9 mph - N/A   Clear
10:15 PM 26.6 °F 22.6 °F 15.8 °F 64% 30.13 in 10.0 mi NNW 3.5 mph - N/A   Clear
10:35 PM 26.6 °F 22.6 °F 14.0 °F 59% 30.13 in 10.0 mi NW 3.5 mph - N/A   Scattered Clouds
10:55 PM 26.6 °F 21.2 °F 15.8 °F 64% 30.12 in 10.0 mi NW 4.6 mph - N/A   Mostly Cloudy
11:15 PM 24.8 °F 20.5 °F 15.8 °F 69% 30.13 in 10.0 mi NW 3.5 mph - N/A   Mostly Cloudy
11:35 PM 24.8 °F - 15.8 °F 69% 30.13 in 10.0 mi Calm Calm - N/A   Scattered Clouds
11:55 PM 24.8 °F - 15.8 °F 69% 30.13 in 10.0 mi Calm Calm - N/A   Clear